Location: Kaseke
(18.0171°S, 31.0526°E)
Time: 12:48:14
(UTC+00:00)

Cosmos 1570 Rocket - Pass Details

Date: 14 July 2020
Orbit: 763 x 788 km, 74.1° (Epoch: 07 August)

Event Time Altitude Azimuth Distance (km) Brightness Sun altitude
Rises 02:54:56 0° 346° (NNW) 3,245 7.3 -21.6°
Reaches altitude 10° 02:57:18 10° 345° (NNW) 2,327 6.5 -21.1°
Maximum altitude 03:02:36 85° 257° (WSW) 795 3.9 -19.8°
Drops below altitude 10° 03:07:59 10° 168° (SSE) 2,361 6.5 -18.6°
Sets 03:10:24 0° 167° (SSE) 3,296 7.2 -18.1°
